Regional Weather Roundup
Issued by NWS

Home | Current Version | Previous Version | Graphics & Text | Print | Product List | Glossary On
Versions: 1 2 3 4 5 6 7 8 9 10 11 12 13 14 15 16 17 18 19 20 21 22 23 24 25 26 27 28 29 30 31 32 33 34 35 36 37 38 39 40 41 42 43 44 45 46 47 48 49 50
772
ASUS43 KOAX 061610
RWRNE

WEATHER ROUNDUP FOR NEBRASKA
NATIONAL WEATHER SERVICE OMAHA NE
1100 AM CDT FRI MAY 06 2016

NOTES: SATELLITE DATA IS BEING USED TO AUGMENT CLOUD COVER ABOVE
       12000 FEET.
       "FAIR" INDICATES FEW OR NO CLOUDS BELOW 12,000 FEET WITH NO
       SIGNIFICANT WEATHER AND/OR OBSTRUCTIONS TO VISIBILITY.

  * THESE STATIONS DO NOT REPORT WEATHER SUCH AS RAIN...SNOW OR FOG.

NEZ001>004-019>022-054>056-061700-
NEBRASKA PANHANDLE

CITY           SKY/WX    TMP DP  RH WIND       PRES   REMARKS
SCOTTSBLUFF    SUNNY     68  48  48 SE13      29.95S
ALLIANCE       CLOUDY    66  50  56 S13       29.96S
CHADRON        CLOUDY    74  50  42 S7        29.92S
KIMBALL        CLOUDY    67  47  49 S3        29.99S
SIDNEY         SUNNY     68  48  48 SE8       29.97F
$$

NEZ057>060-069>072-079>082-061700-
SOUTHWEST NEBRASKA

CITY           SKY/WX    TMP DP  RH WIND       PRES   REMARKS
NORTH PLATTE   SUNNY     72  50  45 S16G23    29.97F
IMPERIAL       MOSUNNY   68  48  48 S10       29.96F
MCCOOK         MOSUNNY   70  52  52 S17G23    29.97F
OGALLALA       CLOUDY    68  49  51 S8        29.97F
$$

NEZ005>010-023>029-035>040-094-061700-
NORTH CENTRAL NEBRASKA

CITY           SKY/WX    TMP DP  RH WIND       PRES   REMARKS
VALENTINE      SUNNY     77  47  34 SW18      29.92F
AINSWORTH      SUNNY     76  49  38 S18G24    29.94S
BROKEN BOW     MOSUNNY   73  50  44 SW18G25   29.99S
O`NEILL        SUNNY     78  51  37 SW13      29.93S
ORD            SUNNY     74  52  46 S16       29.96F
THEDFORD       MOSUNNY   75  47  37 S20       29.97S
$$

NEZ041-046>049-061>064-073>077-083>087-061700-
SOUTH CENTRAL NEBRASKA

CITY           SKY/WX    TMP DP  RH WIND       PRES   REMARKS
GRAND ISLAND   SUNNY     76  48  37 SW18      30.00F
AURORA         SUNNY     78  45  30 SW21G26   30.00F
HASTINGS       SUNNY     75  45  34 SW17G28   30.01F
HEBRON         SUNNY     76  42  30 SW15      30.04S
HOLDREGE       MOSUNNY   71  46  40 S18G25    30.00F
KEARNEY *      MOSUNNY   73  48  40 SW17G24   30.01S
YORK           SUNNY     77  41  27 SW16      30.01F
$$

NEZ011>018-030>034-042>045-061700-
NORTHEAST NEBRASKA

CITY           SKY/WX    TMP DP  RH WIND       PRES   REMARKS
NORFOLK        SUNNY     77  46  33 SW21G28   29.95F
ALBION         SUNNY     74  48  38 SW22G30   29.97F
BLAIR          SUNNY     76  46  34 SW16      30.01S
COLUMBUS *     SUNNY     77  46  33 SW15G22   30.00F
FREMONT        SUNNY     76  45  32 SW14G23   30.00F
TEKAMAH        SUNNY     77  49  37 SW17      29.98F
WAYNE          SUNNY     76  49  38 SW21G32   29.96F
$$

NEZ050>053-065>068-078-088>093-061700-
SOUTHEAST NEBRASKA

CITY           SKY/WX    TMP DP  RH WIND       PRES   REMARKS
LINCOLN        SUNNY     80  42  25 SW20      30.02F
OMAHA EPPLEY   MOSUNNY   77  46  33 SW12      30.00F
BEATRICE       SUNNY     76  47  35 SW16      30.03F
FALLS CITY     SUNNY     76  50  40 SW9       30.05S
NEBRASKA CITY  SUNNY     75  44  32 SW17      30.04S
PLATTSMOUTH    SUNNY     79  46  31 SW14      30.03S
$$

NEZ044-045-051>053-067-061700-
OMAHA AREA

CITY           SKY/WX    TMP DP  RH WIND       PRES   REMARKS
OMAHA EPPLEY   MOSUNNY   77  46  33 SW12      30.00F
BLAIR          SUNNY     76  46  34 SW16      30.01S
FREMONT        SUNNY     76  45  32 SW14G23   30.00F
MILLARD        SUNNY     77  47  34 SW9G17    30.01S
OFFUTT AFB     SUNNY     77  45  32 SW15      30.00F
PLATTSMOUTH    SUNNY     79  46  31 SW14      30.03S
WAHOO          FAIR      78  43  29 SW17      30.00F
$$




USA.gov is the U.S. government's official web portal to all federal, state and local government web resources and services.